QPF
0.00 0.00 0.02 0.01 0.01 0.00 0.00 0.00 0.00 0.00 0.00 0.00 0.00 0.00 0.01 0.00 0.00 0.00 0.00 0.00 0.00 0.00 0.01 0.01 0.02 0.02 0.02 0.02 0.01 0.01 0.00 0.00 0.00 0.00 0.00 0.00 0.00 0.00 0.00 0.00 0.00 0.00 0.00
0.00 0.00 0.01 0.01 0.00 0.00 0.00 0.00 0.00 0.00 0.00 0.00 0.00 0.00 0.01 0.00 0.00 0.00 0.00 0.00 0.00 0.00 0.01 0.01 0.02 0.02 0.03 0.02 0.01 0.00 0.00 0.00 0.00 0.00 0.00 0.00 0.00 0.00 0.00 0.00 0.00 0.00 0.00
0.00 0.00 0.01 0.01 0.00 0.00 0.00 0.00 0.00 0.00 0.00 0.00 0.00 0.00 0.00 0.00 0.00 0.00 0.00 0.00 0.00 0.00 0.00 0.00 0.01 0.01 0.02 0.01 0.01 0.00 0.00 0.00 0.00 0.00 0.00 0.00 0.00 0.00 0.00 0.00 0.00 0.00 0.00
0.00 0.00 0.00 0.01 0.00 0.00 0.00 0.00 0.00 0.00 0.00 0.00 0.00 0.00 0.00 0.00 0.00 0.00 0.00 0.00 0.00 0.00 0.00 0.00 0.00 0.00 0.00 0.00 0.00 0.00 0.00 0.00 0.00 0.00 0.00 0.00 0.00 0.00 0.00 0.00 0.00 0.00 0.00
0.00 0.00 0.00 0.00 0.00 0.00 0.00 0.00 0.00 0.00 0.00 0.00 0.00 0.00 0.00 0.00 0.00 0.00 0.00 0.00 0.00 0.00 0.00 0.00 0.00 0.00 0.00 0.00 0.00 0.00 0.00 0.00 0.00 0.00 0.00 0.00 0.00 0.00 0.00 0.01 0.01 0.01 0.00
0.00 0.00 0.00 0.00 0.00 0.00 0.00 0.00 0.00 0.00 0.00 0.00 0.00 0.00 0.00 0.00 0.00 0.00 0.00 0.00 0.00 0.00 0.00 0.00 0.00 0.00 0.00 0.00 0.00 0.00 0.00 0.00 0.00 0.00 0.00 0.00 0.00 0.00 0.00 0.01 0.01 0.01 0.00
0.00 0.00 0.00 0.00 0.01 0.00 0.00 0.00 0.00 0.00 0.00 0.00 0.00 0.00 0.00 0.00 0.00 0.00 0.00 0.00 0.00 0.00 0.00 0.00 0.00 0.00 0.00 0.00 0.00 0.00 0.00 0.00 0.00 0.00 0.00 0.00 0.00 0.00 0.00 0.00 0.00 0.00 0.00
0.00 0.00 0.00 0.00 0.00 0.00 0.00 0.00 0.00 0.00 0.00 0.00 0.00 0.00 0.00 0.00 0.00 0.00 0.00 0.00 0.00 0.00 0.00 0.00 0.00 0.00 0.00 0.00 0.00 0.00 0.00 0.00 0.00 0.00 0.00 0.00 0.00 0.00 0.00 0.00 0.00 0.00 0.00
0.00 0.00 0.00 0.00 0.01 0.00 0.00 0.00 0.00 0.00 0.00 0.00 0.00 0.00 0.00 0.00 0.00 0.00 0.00 0.00 0.00 0.00 0.00 0.00 0.00 0.00 0.00 0.00 0.00 0.00 0.00 0.00 0.00 0.00 0.00 0.00 0.00 0.00 0.00 0.00 0.01 0.01 0.01
0.00 0.00 0.00 0.00 0.00 0.00 0.00 0.00 0.00 0.00 0.00 0.00 0.00 0.00 0.00 0.00 0.00 0.00 0.00 0.00 0.00 0.00 0.00 0.00 0.00 0.00 0.00 0.00 0.00 0.00 0.00 0.00 0.00 0.00 0.00 0.00 0.00 0.00 0.01 0.02 0.03 0.03 0.03
0.00 0.00 0.00 0.00 0.00 0.00 0.00 0.00 0.00 0.00 0.00 0.00 0.00 0.00 0.00 0.00 0.00 0.00 0.00 0.00 0.00 0.00 0.00 0.00 0.00 0.00 0.00 0.00 0.00 0.00 0.00 0.00 0.00 0.00 0.00 0.00 0.00 0.01 0.02 0.04 0.05 0.06 0.06
0.00 0.00 0.00 0.00 0.00 0.00 0.00 0.00 0.00 0.00 0.00 0.00 0.00 0.00 0.00 0.00 0.00 0.00 0.00 0.00 0.00 0.00 0.00 0.00 0.00 0.00 0.00 0.00 0.00 0.00 0.00 0.00 0.00 0.00 0.00 0.00 0.00 0.01 0.02 0.03 0.04 0.05 0.05
0.00 0.00 0.00 0.00 0.00 0.00 0.00 0.00 0.00 0.00 0.00 0.00 0.00 0.00 0.00 0.00 0.00 0.00 0.00 0.00 0.00 0.00 0.00 0.00 0.00 0.00 0.00 0.00 0.00 0.00 0.00 0.00 0.00 0.00 0.00 0.00 0.00 0.00 0.01 0.01 0.02 0.02 0.03
0.00 0.00 0.00 0.00 0.00 0.00 0.00 0.00 0.00 0.00 0.00 0.00 0.00 0.00 0.00 0.00 0.00 0.00 0.00 0.00 0.00 0.00 0.00 0.00 0.00 0.00 0.00 0.00 0.00 0.00 0.00 0.00 0.00 0.00 0.00 0.00 0.00 0.00 0.00 0.00 0.00 0.00 0.01
0.00 0.00 0.00 0.00 0.00 0.00 0.00 0.00 0.00 0.00 0.00 0.00 0.00 0.00 0.00 0.00 0.00 0.00 0.00 0.00 0.00 0.00 0.00 0.00 0.00 0.00 0.00 0.00 0.00 0.00 0.00 0.00 0.00 0.00 0.00 0.00 0.00 0.00 0.00 0.00 0.00 0.00 0.00
0.00 0.00 0.00 0.00 0.00 0.00 0.00 0.00 0.00 0.00 0.00 0.00 0.00 0.00 0.00 0.00 0.00 0.00 0.00 0.00 0.00 0.00 0.00 0.00 0.00 0.00 0.00 0.00 0.00 0.00 0.00 0.00 0.00 0.00 0.00 0.00 0.00 0.00 0.00 0.00 0.00 0.00 0.00
0.00 0.00 0.00 0.00 0.00 0.00 0.00 0.00 0.00 0.00 0.00 0.00 0.00 0.00 0.00 0.00 0.00 0.00 0.00 0.00 0.00 0.00 0.00 0.00 0.00 0.00 0.00 0.00 0.00 0.00 0.00 0.00 0.00 0.00 0.00 0.00 0.00 0.00 0.00 0.00 0.00 0.00 0.00
0.00 0.00 0.00 0.00 0.00 0.00 0.00 0.00 0.01 0.01 0.01 0.01 0.00 0.00 0.00 0.00 0.00 0.00 0.00 0.00 0.00 0.00 0.00 0.00 0.00 0.00 0.00 0.00 0.00 0.00 0.00 0.00 0.00 0.00 0.00 0.00 0.00 0.00 0.00 0.00 0.00 0.00 0.00
0.00 0.00 0.00 0.00 0.00 0.00 0.00 0.01 0.01 0.02 0.02 0.02 0.01 0.00 0.00 0.00 0.00 0.00 0.00 0.00 0.00 0.00 0.00 0.00 0.00 0.00 0.00 0.00 0.00 0.00 0.00 0.00 0.00 0.00 0.00 0.00 0.00 0.00 0.00 0.00 0.00 0.00 0.00
0.00 0.00 0.00 0.00 0.00 0.00 0.00 0.01 0.02 0.02 0.02 0.02 0.01 0.00 0.00 0.00 0.00 0.00 0.00 0.00 0.00 0.00 0.00 0.00 0.00 0.00 0.00 0.00 0.00 0.00 0.00 0.00 0.00 0.00 0.00 0.00 0.00 0.00 0.00 0.00 0.00 0.00 0.00
0.00 0.00 0.00 0.00 0.00 0.00 0.00 0.01 0.03 0.03 0.02 0.02 0.01 0.01 0.00 0.00 0.00 0.00 0.00 0.00 0.00 0.00 0.00 0.00 0.00 0.00 0.00 0.00 0.00 0.00 0.00 0.00 0.00 0.00 0.00 0.00 0.00 0.00 0.00 0.00 0.00 0.00 0.00
0.00 0.00 0.00 0.00 0.00 0.00 0.01 0.02 0.04 0.05 0.03 0.02 0.01 0.01 0.00 0.00 0.00 0.00 0.00 0.00 0.00 0.00 0.00 0.00 0.00 0.00 0.00 0.00 0.00 0.00 0.00 0.00 0.00 0.00 0.00 0.00 0.00 0.00 0.00 0.00 0.00 0.00 0.00
0.00 0.00 0.00 0.00 0.00 0.00 0.01 0.02 0.03 0.03 0.03 0.01 0.01 0.01 0.00 0.00 0.00 0.00 0.00 0.00 0.00 0.00 0.00 0.00 0.00 0.00 0.00 0.00 0.00 0.00 0.00 0.00 0.00 0.00 0.00 0.00 0.00 0.00 0.00 0.00 0.00 0.00 0.00
0.00 0.00 0.00 0.00 0.00 0.00 0.00 0.02 0.03 0.03 0.03 0.02 0.01 0.00 0.00 0.00 0.00 0.00 0.00 0.00 0.00 0.00 0.00 0.00 0.00 0.00 0.00 0.00 0.00 0.00 0.00 0.00 0.00 0.00 0.00 0.00 0.00 0.00 0.00 0.00 0.00 0.00 0.00
0.00 0.00 0.00 0.00 0.00 0.00 0.00 0.01 0.03 0.03 0.02 0.01 0.00 0.00 0.00 0.00 0.00 0.00 0.00 0.00 0.00 0.00 0.00 0.00 0.00 0.00 0.00 0.00 0.00 0.00 0.00 0.00 0.00 0.00 0.00 0.00 0.00 0.00 0.00 0.00 0.00 0.00 0.00
0.00 0.00 0.00 0.00 0.00 0.00 0.00 0.01 0.01 0.02 0.01 0.00 0.00 0.00 0.00 0.00 0.00 0.00 0.00 0.00 0.00 0.00 0.00 0.00 0.00 0.00 0.00 0.00 0.00 0.00 0.00 0.00 0.00 0.00 0.00 0.00 0.00 0.00 0.00 0.00 0.00 0.00 0.00
MSLP
1011.60 1011.36 1011.29 1011.39 1011.66 1012.04 1012.46 1012.84 1013.14 1013.33 1013.41 1013.45 1013.48 1013.57 1013.73 1013.97 1014.24 1014.51 1014.71 1014.82 1014.83 1014.76 1014.66 1014.58 1014.57 1014.66 1014.84 1015.10 1015.39 1015.67 1015.91 1016.09 1016.22 1016.29 1016.34 1016.36 1016.38 1016.37 1016.33 1016.27 1016.16 1016.03 1015.90
1011.38 1011.21 1011.19 1011.35 1011.66 1012.08 1012.53 1012.95 1013.27 1013.49 1013.61 1013.67 1013.73 1013.83 1013.99 1014.23 1014.50 1014.76 1014.96 1015.08 1015.11 1015.07 1015.00 1014.94 1014.93 1014.99 1015.14 1015.35 1015.58 1015.80 1016.00 1016.15 1016.25 1016.32 1016.37 1016.40 1016.42 1016.40 1016.36 1016.28 1016.16 1016.03 1015.90
1011.08 1010.99 1011.04 1011.26 1011.62 1012.09 1012.58 1013.03 1013.39 1013.64 1013.79 1013.88 1013.95 1014.06 1014.23 1014.45 1014.71 1014.96 1015.17 1015.30 1015.36 1015.35 1015.30 1015.27 1015.27 1015.32 1015.44 1015.59 1015.77 1015.94 1016.09 1016.20 1016.29 1016.35 1016.40 1016.42 1016.43 1016.42 1016.36 1016.27 1016.15 1016.01 1015.89
1010.78 1010.77 1010.90 1011.18 1011.60 1012.10 1012.62 1013.10 1013.49 1013.76 1013.94 1014.05 1014.14 1014.25 1014.41 1014.62 1014.86 1015.10 1015.31 1015.45 1015.53 1015.55 1015.54 1015.53 1015.55 1015.60 1015.69 1015.80 1015.93 1016.05 1016.16 1016.24 1016.31 1016.35 1016.39 1016.41 1016.41 1016.38 1016.31 1016.21 1016.08 1015.95 1015.83
1010.54 1010.61 1010.81 1011.16 1011.62 1012.15 1012.69 1013.17 1013.57 1013.85 1014.04 1014.16 1014.27 1014.38 1014.54 1014.73 1014.96 1015.18 1015.38 1015.53 1015.63 1015.68 1015.71 1015.72 1015.75 1015.80 1015.86 1015.95 1016.03 1016.11 1016.18 1016.24 1016.28 1016.32 1016.34 1016.35 1016.33 1016.28 1016.19 1016.07 1015.94 1015.81 1015.70
1010.42 1010.57 1010.83 1011.22 1011.71 1012.25 1012.78 1013.26 1013.64 1013.92 1014.11 1014.24 1014.35 1014.47 1014.62 1014.81 1015.02 1015.24 1015.43 1015.58 1015.69 1015.76 1015.80 1015.84 1015.87 1015.91 1015.96 1016.01 1016.07 1016.11 1016.15 1016.18 1016.21 1016.23 1016.23 1016.21 1016.16 1016.08 1015.97 1015.84 1015.69 1015.56 1015.47
1010.45 1010.65 1010.96 1011.38 1011.87 1012.40 1012.90 1013.34 1013.70 1013.96 1014.15 1014.29 1014.41 1014.54 1014.71 1014.90 1015.10 1015.30 1015.48 1015.63 1015.74 1015.81 1015.86 1015.89 1015.92 1015.95 1015.98 1016.01 1016.04 1016.06 1016.07 1016.08 1016.09 1016.08 1016.06 1016.01 1015.93 1015.81 1015.66 1015.50 1015.34 1015.21 1015.12
1010.60 1010.84 1011.18 1011.60 1012.08 1012.57 1013.03 1013.43 1013.75 1013.99 1014.18 1014.33 1014.47 1014.63 1014.82 1015.01 1015.22 1015.41 1015.57 1015.70 1015.79 1015.85 1015.89 1015.92 1015.94 1015.95 1015.96 1015.97 1015.97 1015.97 1015.96 1015.95 1015.94 1015.91 1015.85 1015.77 1015.64 1015.48 1015.29 1015.10 1014.91 1014.77 1014.67
1010.80 1011.06 1011.41 1011.82 1012.28 1012.72 1013.13 1013.49 1013.77 1014.01 1014.20 1014.38 1014.56 1014.75 1014.96 1015.18 1015.38 1015.55 1015.70 1015.80 1015.87 1015.91 1015.93 1015.94 1015.94 1015.94 1015.93 1015.92 1015.90 1015.88 1015.86 1015.83 1015.79 1015.74 1015.65 1015.53 1015.36 1015.15 1014.91 1014.67 1014.46 1014.30 1014.19
1010.98 1011.25 1011.60 1011.99 1012.41 1012.81 1013.18 1013.50 1013.77 1014.00 1014.22 1014.43 1014.66 1014.89 1015.13 1015.36 1015.56 1015.72 1015.84 1015.91 1015.95 1015.97 1015.97 1015.97 1015.96 1015.95 1015.93 1015.90 1015.87 1015.84 1015.80 1015.75 1015.70 1015.61 1015.50 1015.34 1015.12 1014.87 1014.59 1014.31 1014.06 1013.87 1013.74
1011.07 1011.33 1011.67 1012.05 1012.43 1012.81 1013.14 1013.44 1013.71 1013.96 1014.21 1014.47 1014.75 1015.03 1015.30 1015.54 1015.74 1015.88 1015.97 1016.01 1016.03 1016.02 1016.02 1016.01 1016.00 1015.99 1015.97 1015.95 1015.91 1015.86 1015.81 1015.74 1015.67 1015.57 1015.43 1015.24 1014.99 1014.70 1014.39 1014.07 1013.78 1013.56 1013.40
1011.02 1011.27 1011.59 1011.96 1012.32 1012.68 1013.00 1013.30 1013.59 1013.87 1014.17 1014.48 1014.81 1015.13 1015.42 1015.67 1015.86 1015.99 1016.05 1016.08 1016.08 1016.07 1016.07 1016.08 1016.08 1016.09 1016.08 1016.05 1016.01 1015.96 1015.89 1015.81 1015.72 1015.61 1015.45 1015.25 1015.00 1014.69 1014.36 1014.01 1013.70 1013.43 1013.24
1010.81 1011.05 1011.37 1011.72 1012.08 1012.43 1012.76 1013.08 1013.40 1013.73 1014.07 1014.44 1014.81 1015.16 1015.48 1015.73 1015.92 1016.03 1016.09 1016.11 1016.11 1016.12 1016.14 1016.18 1016.22 1016.25 1016.26 1016.24 1016.19 1016.13 1016.04 1015.95 1015.85 1015.73 1015.57 1015.38 1015.14 1014.84 1014.51 1014.16 1013.83 1013.53 1013.30
1010.47 1010.70 1011.00 1011.35 1011.71 1012.08 1012.43 1012.79 1013.15 1013.53 1013.94 1014.35 1014.76 1015.14 1015.47 1015.73 1015.91 1016.02 1016.08 1016.11 1016.14 1016.19 1016.25 1016.33 1016.41 1016.47 1016.50 1016.48 1016.43 1016.35 1016.25 1016.13 1016.02 1015.90 1015.77 1015.60 1015.39 1015.13 1014.83 1014.50 1014.17 1013.86 1013.59
1010.04 1010.25 1010.55 1010.90 1011.27 1011.66 1012.05 1012.46 1012.87 1013.31 1013.77 1014.23 1014.67 1015.07 1015.42 1015.68 1015.87 1016.00 1016.08 1016.14 1016.22 1016.31 1016.43 1016.55 1016.67 1016.76 1016.80 1016.78 1016.71 1016.60 1016.47 1016.34 1016.22 1016.10 1015.99 1015.87 1015.71 1015.51 1015.27 1014.98 1014.67 1014.35 1014.06
1009.57 1009.77 1010.06 1010.41 1010.81 1011.22 1011.66 1012.12 1012.60 1013.10 1013.61 1014.11 1014.58 1015.01 1015.37 1015.65 1015.86 1016.01 1016.13 1016.25 1016.37 1016.52 1016.69 1016.86 1017.01 1017.11 1017.15 1017.12 1017.02 1016.88 1016.71 1016.55 1016.41 1016.30 1016.22 1016.14 1016.05 1015.93 1015.76 1015.53 1015.26 1014.96 1014.64
1009.11 1009.30 1009.59 1009.94 1010.35 1010.81 1011.30 1011.82 1012.36 1012.92 1013.49 1014.03 1014.54 1014.99 1015.37 1015.68 1015.92 1016.12 1016.29 1016.46 1016.64 1016.84 1017.05 1017.26 1017.42 1017.52 1017.55 1017.49 1017.35 1017.17 1016.96 1016.77 1016.61 1016.50 1016.43 1016.40 1016.37 1016.32 1016.22 1016.07 1015.85 1015.57 1015.25
1008.72 1008.89 1009.17 1009.53 1009.96 1010.46 1011.00 1011.59 1012.20 1012.83 1013.44 1014.03 1014.58 1015.06 1015.47 1015.81 1016.09 1016.34 1016.56 1016.78 1017.02 1017.26 1017.50 1017.72 1017.89 1017.98 1017.98 1017.88 1017.71 1017.48 1017.24 1017.01 1016.82 1016.70 1016.64 1016.63 1016.64 1016.64 1016.61 1016.52 1016.35 1016.11 1015.79
1008.40 1008.56 1008.83 1009.19 1009.65 1010.19 1010.79 1011.44 1012.13 1012.82 1013.49 1014.13 1014.71 1015.22 1015.67 1016.05 1016.37 1016.67 1016.94 1017.21 1017.48 1017.76 1018.01 1018.23 1018.38 1018.45 1018.43 1018.30 1018.10 1017.84 1017.57 1017.31 1017.09 1016.94 1016.86 1016.84 1016.86 1016.88 1016.89 1016.83 1016.71 1016.49 1016.19
1008.18 1008.32 1008.58 1008.95 1009.43 1010.01 1010.67 1011.39 1012.14 1012.90 1013.63 1014.31 1014.92 1015.47 1015.95 1016.37 1016.74 1017.07 1017.39 1017.70 1018.00 1018.28 1018.54 1018.74 1018.88 1018.93 1018.89 1018.75 1018.54 1018.27 1017.98 1017.69 1017.44 1017.25 1017.13 1017.06 1017.05 1017.05 1017.04 1017.00 1016.89 1016.69 1016.41
1008.02 1008.17 1008.42 1008.80 1009.31 1009.93 1010.65 1011.43 1012.24 1013.06 1013.84 1014.56 1015.21 1015.78 1016.29 1016.74 1017.15 1017.52 1017.87 1018.20 1018.51 1018.79 1019.03 1019.22 1019.35 1019.39 1019.34 1019.22 1019.02 1018.77 1018.48 1018.18 1017.91 1017.66 1017.47 1017.32 1017.22 1017.16 1017.10 1017.02 1016.89 1016.70 1016.42
1007.93 1008.08 1008.34 1008.73 1009.26 1009.92 1010.69 1011.53 1012.40 1013.27 1014.09 1014.84 1015.52 1016.12 1016.65 1017.13 1017.56 1017.95 1018.32 1018.66 1018.97 1019.25 1019.47 1019.65 1019.76 1019.81 1019.78 1019.69 1019.53 1019.32 1019.06 1018.77 1018.47 1018.17 1017.88 1017.63 1017.41 1017.23 1017.07 1016.92 1016.75 1016.54 1016.27
1007.85 1008.03 1008.31 1008.72 1009.28 1009.98 1010.79 1011.68 1012.60 1013.50 1014.36 1015.13 1015.83 1016.45 1017.00 1017.49 1017.94 1018.35 1018.73 1019.07 1019.37 1019.63 1019.84 1020.00 1020.11 1020.17 1020.18 1020.14 1020.05 1019.90 1019.69 1019.42 1019.10 1018.74 1018.36 1017.98 1017.62 1017.30 1017.01 1016.75 1016.51 1016.26 1015.97
1007.77 1008.00 1008.31 1008.75 1009.34 1010.08 1010.93 1011.85 1012.81 1013.74 1014.62 1015.41 1016.12 1016.75 1017.31 1017.81 1018.27 1018.69 1019.07 1019.41 1019.70 1019.93 1020.13 1020.27 1020.39 1020.47 1020.53 1020.55 1020.53 1020.45 1020.30 1020.06 1019.73 1019.32 1018.85 1018.34 1017.84 1017.36 1016.92 1016.54 1016.21 1015.90 1015.59
1007.66 1007.96 1008.32 1008.80 1009.43 1010.20 1011.08 1012.03 1013.01 1013.97 1014.86 1015.67 1016.39 1017.03 1017.59 1018.11 1018.57 1019.00 1019.38 1019.70 1019.97 1020.19 1020.36 1020.49 1020.60 1020.70 1020.79 1020.87 1020.92 1020.91 1020.81 1020.61 1020.28 1019.83 1019.28 1018.66 1018.02 1017.39 1016.82 1016.31 1015.88 1015.51 1015.16
1007.52 1007.90 1008.33 1008.87 1009.54 1010.34 1011.24 1012.22 1013.22 1014.19 1015.09 1015.91 1016.64 1017.28 1017.86 1018.38 1018.86 1019.28 1019.66 1019.97 1020.22 1020.41 1020.55 1020.66 1020.76 1020.86 1020.97 1021.08 1021.17 1021.22 1021.17 1021.00 1020.68 1020.21 1019.60 1018.89 1018.14 1017.39 1016.69 1016.07 1015.54 1015.10 1014.71
Thickness
5750 5753 5751 5748 5745 5743 5740 5738 5737 5735 5733 5732 5731 5729 5728 5726 5725 5724 5724 5724 5723 5724 5724 5724 5724 5724 5723 5721 5720 5718 5717 5716 5714 5713 5711 5711 5710 5711 5711 5711 5710 5709 5709
5754 5752 5749 5746 5742 5740 5737 5735 5733 5731 5729 5728 5727 5725 5724 5723 5721 5721 5720 5720 5720 5720 5720 5720 5720 5720 5720 5719 5716 5715 5713 5712 5711 5709 5708 5707 5707 5707 5708 5707 5707 5706 5706
5751 5749 5746 5743 5739 5736 5734 5731 5729 5727 5725 5724 5722 5721 5720 5719 5717 5716 5716 5716 5716 5715 5715 5715 5715 5715 5715 5714 5712 5711 5710 5708 5707 5706 5705 5704 5704 5704 5705 5704 5704 5703 5703
5748 5745 5742 5739 5736 5733 5730 5727 5725 5723 5721 5720 5718 5717 5716 5715 5714 5712 5712 5711 5711 5710 5710 5710 5710 5709 5709 5708 5707 5706 5706 5705 5703 5702 5701 5700 5700 5700 5701 5701 5701 5701 5700
5743 5741 5738 5735 5733 5729 5726 5724 5721 5719 5717 5715 5714 5713 5712 5711 5710 5708 5708 5707 5706 5705 5705 5705 5704 5704 5703 5702 5702 5702 5701 5701 5700 5698 5697 5696 5696 5696 5697 5698 5699 5698 5697
5738 5736 5734 5732 5729 5726 5723 5720 5717 5715 5713 5711 5710 5709 5708 5707 5706 5705 5703 5702 5701 5700 5700 5700 5699 5699 5698 5698 5697 5697 5697 5696 5695 5694 5693 5693 5692 5693 5693 5694 5695 5695 5694
5732 5731 5730 5728 5725 5722 5719 5716 5713 5711 5709 5708 5706 5705 5704 5703 5702 5701 5699 5698 5697 5696 5696 5695 5695 5694 5693 5693 5693 5693 5692 5691 5691 5690 5690 5689 5689 5689 5690 5691 5692 5692 5691
5728 5726 5725 5723 5721 5718 5715 5712 5709 5707 5706 5704 5703 5702 5701 5700 5699 5697 5695 5694 5693 5692 5692 5691 5690 5690 5689 5689 5688 5688 5688 5687 5687 5686 5686 5686 5686 5686 5687 5688 5688 5688 5688
5724 5722 5721 5719 5717 5714 5711 5708 5706 5704 5702 5700 5699 5698 5697 5696 5695 5693 5692 5690 5689 5688 5688 5687 5686 5686 5685 5684 5684 5684 5683 5683 5682 5682 5682 5682 5682 5682 5683 5684 5684 5684 5684
5719 5718 5717 5715 5713 5710 5707 5704 5702 5700 5698 5697 5695 5694 5693 5692 5691 5689 5688 5686 5685 5685 5684 5683 5682 5682 5681 5680 5679 5679 5679 5679 5678 5678 5677 5677 5677 5678 5679 5680 5680 5680 5680
5713 5714 5713 5711 5709 5706 5704 5701 5698 5696 5695 5693 5691 5690 5689 5687 5686 5685 5683 5682 5682 5681 5680 5679 5679 5677 5676 5675 5674 5674 5674 5673 5673 5672 5672 5672 5672 5673 5674 5674 5675 5675 5675
5710 5711 5710 5708 5706 5703 5700 5697 5694 5693 5691 5689 5687 5686 5684 5683 5682 5680 5679 5679 5678 5677 5676 5675 5674 5672 5671 5670 5669 5668 5667 5667 5666 5666 5665 5665 5666 5667 5667 5667 5667 5667 5667
5709 5709 5709 5706 5704 5700 5697 5694 5691 5689 5687 5685 5683 5682 5680 5679 5677 5676 5675 5674 5674 5672 5671 5669 5668 5666 5664 5663 5661 5661 5660 5659 5659 5658 5658 5657 5658 5658 5658 5657 5657 5656 5656
5704 5706 5706 5704 5701 5698 5695 5691 5688 5686 5683 5681 5680 5678 5676 5674 5673 5671 5670 5669 5668 5666 5664 5663 5660 5659 5657 5655 5653 5652 5652 5651 5650 5649 5648 5648 5648 5648 5647 5646 5645 5644 5643
5701 5702 5702 5701 5699 5696 5692 5689 5686 5683 5681 5679 5677 5675 5673 5671 5668 5666 5664 5663 5661 5659 5657 5655 5653 5651 5649 5647 5645 5644 5643 5642 5641 5640 5638 5637 5636 5636 5635 5634 5632 5632 5631
5700 5701 5700 5699 5697 5693 5690 5686 5683 5680 5677 5675 5673 5671 5669 5667 5664 5661 5658 5656 5653 5651 5649 5647 5645 5643 5640 5638 5637 5635 5634 5633 5632 5630 5628 5626 5624 5623 5622 5620 5619 5619 5619
5700 5700 5699 5697 5694 5691 5688 5684 5680 5677 5674 5671 5669 5667 5664 5662 5659 5655 5652 5648 5645 5643 5641 5639 5637 5635 5633 5631 5629 5627 5626 5624 5622 5620 5617 5615 5612 5609 5608 5606 5605 5605 5605
5697 5697 5697 5696 5692 5689 5685 5681 5677 5673 5670 5667 5664 5662 5659 5655 5652 5648 5644 5640 5637 5635 5634 5631 5628 5626 5623 5621 5619 5618 5616 5614 5612 5609 5606 5603 5599 5596 5594 5592 5590 5590 5590
5694 5694 5693 5693 5689 5685 5681 5676 5672 5668 5664 5661 5658 5655 5651 5647 5644 5640 5636 5632 5629 5628 5625 5622 5617 5615 5612 5610 5610 5610 5607 5604 5601 5598 5595 5591 5588 5584 5582 5579 5577 5575 5575
5688 5688 5688 5687 5684 5680 5675 5669 5664 5659 5655 5652 5649 5646 5643 5638 5635 5631 5627 5623 5621 5618 5614 5611 5607 5604 5601 5598 5600 5599 5596 5593 5590 5587 5583 5579 5576 5573 5570 5566 5563 5561 5560
5680 5682 5682 5680 5678 5675 5670 5664 5657 5650 5646 5642 5639 5637 5634 5629 5625 5623 5619 5614 5612 5607 5602 5599 5597 5593 5589 5587 5586 5584 5584 5583 5579 5576 5571 5567 5563 5560 5556 5551 5547 5545 5543
5674 5675 5675 5674 5672 5670 5666 5661 5654 5645 5637 5633 5629 5627 5624 5620 5616 5613 5610 5605 5601 5596 5591 5587 5584 5579 5574 5571 5566 5565 5563 5566 5566 5566 5560 5555 5551 5546 5539 5534 5530 5528 5526
5666 5667 5669 5667 5664 5662 5658 5653 5644 5637 5630 5623 5619 5615 5613 5610 5606 5603 5599 5595 5590 5585 5579 5574 5570 5565 5559 5555 5551 5547 5542 5540 5543 5551 5548 5542 5536 5530 5524 5520 5517 5514 5511
5659 5660 5661 5659 5656 5654 5652 5648 5644 5636 5626 5617 5611 5606 5602 5599 5596 5593 5589 5584 5579 5573 5567 5563 5557 5552 5546 5540 5536 5532 5526 5522 5518 5527 5533 5528 5523 5517 5512 5508 5504 5501 5497
5652 5652 5652 5651 5648 5646 5644 5641 5638 5628 5618 5608 5602 5598 5593 5588 5586 5582 5578 5572 5567 5561 5555 5550 5544 5539 5533 5527 5522 5517 5512 5506 5500 5496 5507 5511 5509 5504 5499 5495 5491 5487 5482
5643 5644 5644 5643 5640 5637 5636 5633 5629 5621 5611 5602 5595 5589 5583 5579 5575 5571 5566 5561 5555 5549 5543 5537 5532 5526 5520 5514 5508 5502 5496 5490 5484 5479 5481 5489 5492 5492 5487 5483 5477 5469 5463